Skip Page Navigation
NASA JPL Caltech
NASA Logo - Jet Propulsion Laboratory + View the NASA Portal
+ Center for Near-Earth Object Studies
JPL Home Earth Solar System Stars & Galaxies Technology
JPL Solar System Dynamics
BODIES ORBITS EPHEMERIDES TOOLS PHYSICAL DATA DISCOVERY FAQ SITE MAP

Significant website upgrade scheduled for September 27. More details available here.

JPL Small-Body Database Browser
Search: [ help ]  
66907 (1999 VJ162)
Classification: Main-belt Asteroid          SPK-ID: 2066907
Ephemeris | Orbit Diagram | Orbital Elements | Mission Design | Physical Parameters | Discovery Circumstances | Close-Approach Data ]

[ show orbit diagram ]
Orbital Elements at Epoch 2459396.5 (2021-Jul-01.0) TDB
Reference: JPL 23 (heliocentric ecliptic J2000)
 Element Value Uncertainty (1-sigma)   Units 
e .07931274199468594 5.8642e-08  
a 2.872893636392601 2.2022e-08 au
q 2.64503656463122 1.6092e-07 au
i 7.881388389708245 5.8285e-06 deg
node 242.2495996635029 3.9588e-05 deg
peri 276.9657031511085 6.0245e-05 deg
M 54.66234722405881 4.2457e-05 deg
tp 2459126.437972603871
(2020-Oct-03.93797260)
0.00020933 TDB
period 1778.597788055022
4.87
2.045e-05
5.599e-08
d
yr
n .2024066387677657 2.3273e-09 deg/d
Q 3.100750708153983 2.3768e-08 au
  Orbit Determination Parameters
   # obs. used (total)      745  
   data-arc span      7901 days (21.63 yr)  
   first obs. used      1999-10-12  
   last obs. used      2021-05-30  
   planetary ephem.      DE441  
   SB-pert. ephem.      SB441-N16  
   condition code      0  
   norm. resid. RMS      .4983  
   source      ORB  
   producer      Otto Matic  
   solution date      2021-Jul-08 22:33:38  

Additional Information
 Earth MOID = 1.66876 au 
 Jupiter MOID = 1.95614 au 
 T_jup = 3.279 
[ show covariance matrix ]

Ephemeris | Orbit Diagram | Orbital Elements | Mission Design | Physical Parameters | Discovery Circumstances | Close-Approach Data ]

Physical Parameter Table
Parameter Symbol Value Units Sigma Reference Notes
absolute magnitude H 15.15   n/a MPO636974  

66907 (1999 VJ162)          Discovered 1999-Nov-14 by LINEAR at Socorro
Reference: 20030910/Numbers.arcLast Updated: 2004-04-19

[ show close-approach data ]
Alternate Designations
 1999 VJ162 = 2001 BE80 
Ephemeris | Orbit Diagram | Orbital Elements | Mission Design | Physical Parameters | Discovery Circumstances | Close-Approach Data ]
ABOUT SSD CREDITS/AWARDS PRIVACY/COPYRIGHT GLOSSARY LINKS
FirstGov 2021-Sep-19 00:37 UT
(server date/time)  
NASA Home Page
Site Manager:   Ryan S. Park
Webmaster  Alan B. Chamberlin